• In United Kingdom
  • List of Countries
  • For 7 days
  • Water Temperature
  • Satellite Maps
  • Weather Map
  • Weather Widgets
  • user-avatar
    Login

    Hourly Weather Namibe

    Today, 23 August, Wednesday

    Time Temperature Precipitation Wind Pressure Humidity
    00:00 +22°C° 0 mm 3 mps 758 mmHg 65%
    01:00 +22°C° 0 mm 3 mps 758 mmHg 66%
    02:00 +22°C° 0 mm 3 mps 757 mmHg 69%
    03:00 +21°C° 0 mm 3 mps 757 mmHg 73%
    04:00 +20°C° 0 mm 3 mps 757 mmHg 77%
    05:00 +20°C° 0 mm 3 mps 757 mmHg 79%
    06:00 +20°C° 0 mm 4 mps 758 mmHg 82%
    07:00 +20°C° 0 mm 4 mps 758 mmHg 84%
    08:00 +22°C° 0 mm 4 mps 758 mmHg 73%
    09:00 +25°C° 0 mm 5 mps 759 mmHg 61%
    10:00 +28°C° 0 mm 5 mps 759 mmHg 49%
    11:00 +29°C° 0 mm 6 mps 758 mmHg 48%
    12:00 +30°C° 0 mm 6 mps 758 mmHg 46%
    13:00 +32°C° 0 mm 7 mps 757 mmHg 45%
    14:00 +30°C° 0 mm 7 mps 757 mmHg 50%
    15:00 +28°C° 0 mm 7 mps 757 mmHg 55%
    16:00 +27°C° 0 mm 6 mps 757 mmHg 60%
    17:00 +26°C° 0 mm 5 mps 757 mmHg 67%
    18:00 +23°C° 0 mm 4 mps 758 mmHg 74%
    19:00 +22°C° 0 mm 3 mps 759 mmHg 81%
    20:00 +23°C° 0 mm 2 mps 759 mmHg 82%
    21:00 +23°C° 0 mm 1 mps 760 mmHg 83%
    22:00 +22°C° 0 mm 1 mps 760 mmHg 84%
    23:00 +22°C° 0 mm 1 mps 760 mmHg 85%

    Tomorrow, 24 August, Thursday

    Time Temperature Precipitation Wind Pressure Humidity
    00:00 +22°C° 0 mm 1 mps 760 mmHg 86%
    01:00 +21°C° 0 mm 2 mps 760 mmHg 87%
    02:00 +21°C° 0 mm 1 mps 759 mmHg 89%
    03:00 +21°C° 0 mm 1 mps 759 mmHg 91%
    04:00 +21°C° 0 mm 1 mps 759 mmHg 93%
    05:00 +21°C° 0 mm 1 mps 759 mmHg 92%
    06:00 +21°C° 0 mm 1 mps 759 mmHg 92%
    07:00 +21°C° 0 mm 1 mps 759 mmHg 92%
    08:00 +24°C° 0 mm 1 mps 759 mmHg 78%
    09:00 +26°C° 0 mm 1 mps 759 mmHg 65%
    10:00 +28°C° 0 mm 2 mps 760 mmHg 52%
    11:00 +30°C° 0 mm 3 mps 759 mmHg 49%
    12:00 +32°C° 0 mm 4 mps 759 mmHg 46%
    13:00 +33°C° 0 mm 5 mps 758 mmHg 43%
    14:00 +30°C° 0 mm 5 mps 758 mmHg 47%
    15:00 +29°C° 0 mm 5 mps 758 mmHg 52%
    16:00 +28°C° 0 mm 5 mps 757 mmHg 56%
    17:00 +26°C° 0 mm 4 mps 758 mmHg 63%
    18:00 +25°C° 0 mm 4 mps 759 mmHg 69%
    19:00 +22°C° 0 mm 3 mps 759 mmHg 76%
    20:00 +23°C° 0 mm 2 mps 760 mmHg 77%
    21:00 +23°C° 0 mm 2 mps 760 mmHg 78%
    22:00 +23°C° 0 mm 1 mps 760 mmHg 78%
    23:00 +23°C° 0 mm 1 mps 760 mmHg 80%

    Day after tomorrow, 25 August, Friday

    Time Temperature Precipitation Wind Pressure Humidity
    00:00 +21°C° 0 mm 2 mps 760 mmHg 82%
    01:00 +21°C° 0 mm 2 mps 759 mmHg 83%
    02:00 +20°C° 0 mm 2 mps 759 mmHg 86%
    03:00 +20°C° 0 mm 2 mps 759 mmHg 89%
    04:00 +19°C° 0 mm 2 mps 759 mmHg 92%
    05:00 +20°C° 0 mm 1 mps 759 mmHg 92%
    06:00 +20°C° 0 mm 1 mps 759 mmHg 92%
    07:00 +20°C° 0 mm 1 mps 760 mmHg 92%
    08:00 +22°C° 0 mm 1 mps 760 mmHg 81%
    09:00 +24°C° 0 mm 2 mps 760 mmHg 70%
    10:00 +26°C° 0 mm 2 mps 760 mmHg 59%
    11:00 +27°C° 0 mm 3 mps 759 mmHg 53%
    12:00 +29°C° 0 mm 4 mps 758 mmHg 47%
    13:00 +30°C° 0 mm 4 mps 758 mmHg 41%
    14:00 +30°C° 0 mm 5 mps 757 mmHg 43%
    15:00 +29°C° 0 mm 5 mps 757 mmHg 45%
    16:00 +28°C° 0 mm 5 mps 756 mmHg 47%
    17:00 +27°C° 0 mm 5 mps 757 mmHg 52%
    18:00 +25°C° 0 mm 4 mps 757 mmHg 57%
    19:00 +22°C° 0 mm 3 mps 758 mmHg 62%
    20:00 +22°C° 0 mm 3 mps 758 mmHg 63%
    21:00 +22°C° 0 mm 3 mps 758 mmHg 64%
    22:00 +21°C° 0 mm 3 mps 759 mmHg 64%
    23:00 +21°C° 0 mm 3 mps 758 mmHg 65%

    26 August, Saturday

    Time Temperature Precipitation Wind Pressure Humidity
    00:00 +21°C° 0 mm 3 mps 758 mmHg 65%
    01:00 +21°C° 0 mm 3 mps 757 mmHg 65%
    02:00 +20°C° 0 mm 3 mps 757 mmHg 67%
    03:00 +20°C° 0 mm 3 mps 757 mmHg 69%
    04:00 +19°C° 0 mm 3 mps 757 mmHg 70%
    05:00 +19°C° 0 mm 2 mps 757 mmHg 71%
    06:00 +20°C° 0 mm 2 mps 758 mmHg 72%
    07:00 +20°C° 0 mm 2 mps 758 mmHg 73%
    08:00 +23°C° 0 mm 2 mps 758 mmHg 64%
    09:00 +25°C° 0 mm 3 mps 759 mmHg 54%
    10:00 +28°C° 0 mm 3 mps 759 mmHg 45%
    11:00 +29°C° 0 mm 4 mps 758 mmHg 43%
    12:00 +30°C° 0 mm 4 mps 757 mmHg 40%
    13:00 +32°C° 0 mm 5 mps 757 mmHg 37%
    14:00 +30°C° 0 mm 5 mps 756 mmHg 40%
    15:00 +29°C° 0 mm 5 mps 756 mmHg 42%
    16:00 +28°C° 0 mm 4 mps 756 mmHg 44%
    17:00 +26°C° 0 mm 4 mps 756 mmHg 51%
    18:00 +24°C° 0 mm 3 mps 757 mmHg 57%
    19:00 +23°C° 0 mm 2 mps 758 mmHg 64%
    20:00 +23°C° 0 mm 2 mps 758 mmHg 65%
    21:00 +22°C° 0 mm 1 mps 758 mmHg 67%
    22:00 +22°C° 0 mm 1 mps 759 mmHg 68%
    23:00 +21°C° 0 mm 2 mps 759 mmHg 71%

    27 August, Sunday

    Time Temperature Precipitation Wind Pressure Humidity
    00:00 +20°C° 0 mm 2 mps 758 mmHg 74%
    01:00 +20°C° 0 mm 3 mps 758 mmHg 77%
    02:00 +19°C° 0 mm 3 mps 758 mmHg 82%
    03:00 +19°C° 0 mm 4 mps 758 mmHg 86%
    04:00 +18°C° 0 mm 4 mps 758 mmHg 90%
    05:00 +18°C° 0 mm 4 mps 759 mmHg 91%
    06:00 +18°C° 0 mm 4 mps 759 mmHg 92%
    07:00 +18°C° 0 mm 3 mps 759 mmHg 93%
    08:00 +20°C° 0 mm 4 mps 760 mmHg 82%
    09:00 +22°C° 0 mm 4 mps 760 mmHg 71%
    10:00 +25°C° 0 mm 4 mps 760 mmHg 60%
    11:00 +26°C° 0 mm 4 mps 759 mmHg 54%
    12:00 +28°C° 0 mm 4 mps 758 mmHg 49%
    13:00 +30°C° 0 mm 5 mps 758 mmHg 43%
    14:00 +29°C° 0 mm 4 mps 757 mmHg 46%
    15:00 +28°C° 0 mm 4 mps 757 mmHg 49%
    16:00 +28°C° 0 mm 4 mps 757 mmHg 52%
    17:00 +26°C° 0 mm 4 mps 757 mmHg 59%
    18:00 +24°C° 0 mm 3 mps 758 mmHg 66%
    19:00 +23°C° 0 mm 2 mps 758 mmHg 73%
    20:00 +21°C° 0 mm 2 mps 759 mmHg 75%
    21:00 +22°C° 0 mm 1 mps 759 mmHg 77%
    22:00 +21°C° 0 mm 1 mps 759 mmHg 79%
    23:00 +21°C° 0 mm 1 mps 759 mmHg 80%

    28 August, Monday

    Time Temperature Precipitation Wind Pressure Humidity
    00:00 +21°C° 0 mm 1 mps 759 mmHg 82%
    01:00 +21°C° 0 mm 1 mps 759 mmHg 83%
    02:00 +20°C° 0 mm 1 mps 759 mmHg 85%
    03:00 +19°C° 0 mm 2 mps 759 mmHg 88%
    04:00 +19°C° 0 mm 2 mps 759 mmHg 90%
    05:00 +18°C° 0 mm 2 mps 759 mmHg 91%
    06:00 +18°C° 0 mm 2 mps 759 mmHg 92%
    07:00 +18°C° 0 mm 2 mps 760 mmHg 93%
    08:00 +20°C° 0 mm 2 mps 760 mmHg 82%
    09:00 +22°C° 0 mm 3 mps 760 mmHg 70%
    10:00 +25°C° 0 mm 3 mps 760 mmHg 59%
    11:00 +26°C° 0 mm 3 mps 759 mmHg 54%
    12:00 +27°C° 0 mm 4 mps 759 mmHg 50%
    13:00 +29°C° 0 mm 4 mps 758 mmHg 46%
    14:00 +28°C° 0 mm 4 mps 758 mmHg 48%
    15:00 +27°C° 0 mm 5 mps 757 mmHg 51%
    16:00 +27°C° 0 mm 5 mps 757 mmHg 54%
    17:00 +25°C° 0 mm 4 mps 758 mmHg 58%
    18:00 +23°C° 0 mm 4 mps 758 mmHg 63%
    19:00 +21°C° 0 mm 4 mps 759 mmHg 67%
    20:00 +21°C° 0 mm 4 mps 759 mmHg 68%
    21:00 +20°C° 0 mm 4 mps 760 mmHg 69%
    22:00 +20°C° 0 mm 3 mps 760 mmHg 70%
    23:00 +20°C° 0 mm 3 mps 760 mmHg 71%
    Show more